Regional Weather Roundup
Issued by NWS Goodland, KS

Home | Current Version | Previous Version | Graphics & Text | Print | Product List | Glossary On
Versions: 1 2 3 4 5 6 7 8 9 10 11 12 13 14 15 16 17 18 19 20 21 22 23 24 25 26 27 28 29 30 31 32 33 34 35 36 37 38 39 40 41 42 43 44 45 46 47 48 49 50
000
ASUS43 KGLD 171959
RWRGLD

GOODLAND FORECAST AREA HOURLY WEATHER ROUNDUP
NATIONAL WEATHER SERVICE GOODLAND KS
200 PM MDT THU APR 17 2014

...OFFICIAL OBSERVATIONS...

CITY           SKY/WX    TMP DP  RH WIND       PRES   REMARKS
GOODLAND KS    CLOUDY    52  35  52 S17       30.20F
HILL CITY KS   SUNNY     51  28  41 NW3       30.25F
IMPERIAL NEB   PTSUNNY   49  33  54 S20G26    30.18F
MCCOOK NEB     SUNNY     50  31  48 S10       30.23F
AKRON CO       CLOUDY    59  32  36 S22G32    30.06F
BURLINGTON CO  CLOUDY    47  37  68 S17       30.18S
LIMON CO       MOSUNNY   53  32  44 S22G32    30.13F
$$

...UNOFFICIAL OBSERVATIONS...

CITY           SKY/WX    TMP DP  RH WIND       PRES   REMARKS
COLBY KS       CLOUDY    54  37  54 SE12      30.21F
GOVE KS          N/A     52  32  46 S6G13       N/A
LENORA KS        N/A     50  32  50 SE6         N/A
LEOTI KS         N/A     51  32  47 SW6         N/A
NORTON KS      SUNNY     46  28  49 E3        30.24F
SHARON SPRINGS   N/A     52  38  59 S12         N/A
WAKEENEY KS      N/A     54  28  36 MISG        N/A
TRENTON NEB      N/A     50  32  50 S12         N/A
KIT CARSON CO    N/A     48  37  67 MISG        N/A
$$



USA.gov is the U.S. government's official web portal to all federal, state and local government web resources and services.